Hourly Data Report for May 03, 2017

ATIKOKAN (AUT)
ONTARIO

48°45'40.000" N
91°37'41.000" W
389.30 m
6020LPQ
71747
WCH

Download Data

Hourly Data (May 2017)
Hourly Data Report for May 3, 2017
TIME
LST
Temp Definition
°C
Dew Point Definition
°C
Rel Hum Definition
%
Precip. Amount Definition
mm

Wind Dir Definition
10's deg

Wind Spd Definition
km/h
Visibility Definition
km
Stn Press Definition
kPa
Hmdx Definition


Wind Chill Definition


Weather Definition


00:00 -2.0 -3.3 91 0.0   0   96.84     LegendNANA
01:00 -2.5 -3.6 92 0.0   0   96.85     LegendNANA
02:00 -2.9 -3.7 94 0.0 6 2   96.84   -4 LegendNANA
03:00 -3.2 -3.9 95 0.0   0   96.84     LegendNANA
04:00 -3.3 -3.9 95 0.0 7 1   96.83   -4 LegendNANA
05:00 -3.4 -4.0 96 0.0   0   96.83     LegendNANA
06:00 -0.6 -2.1 89 0.0   0   96.83     LegendNANA
07:00 5.6 0.1 68 0.0 6 1   96.83     LegendNANA
08:00 10.1 -0.1 49 0.0 0 1   96.83     LegendNANA
09:00 10.3 -1.9 43 0.0 21 7   96.85     LegendNANA
10:00 12.1 -1.3 40 0.0 23 6   96.86     LegendNANA
11:00 14.1 -1.5 34 0.0 21 8   96.85     LegendNANA
12:00 16.2 0.2 34 0.0 21 13   96.79     LegendNANA
13:00 17.5 0.5 32 0.0 23 12   96.72     LegendNANA
14:00 17.1 -0.1 31 0.0 22 13   96.66     LegendNANA
15:00 12.9 3.5 53 0.0 25 13   96.76     LegendNANA
16:00 10.5 5.6 72 0.2 24 10   96.91     LegendNANA
17:00 9.3 7.2 87 1.0 1 6   96.89     LegendNANA
18:00 8.6 6.6 88 0.2 2 4   96.87     LegendNANA
19:00 8.0 6.4 90 0.8 2 2   96.95     LegendNANA
20:00 7.8 6.7 93 0.7 11 2   97.02     LegendNANA
21:00 7.5 6.5 93 0.0 9 3   96.99     LegendNANA
22:00 6.9 5.8 93 0.0 11 2   97.00     LegendNANA
23:00 5.4 4.4 94 0.0 0 1   97.02     LegendNANA

Notes on Data Quality.

Legend

  • E = Estimated
  • M = Missing
  • NA = Not Available*
  • [empty] = Indicates an unobserved value
Date modified: